map of RUH home
RUH - Airport
Location
City:  Riyadh, Saudi Arabia
Name:King Khaled International Airport
ICAO:OERK
IATA:RUH

Details
Type:Airport (Aerodrome, Airfield)
Use:Public/Civil, International (customs port of entry)
Latitude:2457'46"N (24.962778)
Longitude:4642'29"E (46.708056)
Elevation:2049 ft (625 m)
Variation:3.11E (WMM2015v2 magnetic declination)
0.05 annual change
Runways:2
Longest:13796 × 197 ft (4205 × 60 m), paved

Time
Time Zone:UTC+3
Local Time:

Weather
METAR:OERK 041400Z 04006KT CAVOK 19/M08 Q1023 NOSIG
TAF:OERK 031700Z 0318/0424 02006G16KT 7000 FEW040 SCT100
TEMPO 0318/0402 4000 DU BLDU

Related Locations
Nearby:
Farthest:GMR: 12272 mi / 19749 km
Mangareva [Totegegie], Gambier Islands, PF

Find:

   beyond  
but within

Other Information
Maps:
NOTAMs:
Links:
Sources:

  
  • flag of Saudi Arabia
  

Sectional Chart

Flight Planning
at skyvector.com

Satellite Image

Google Maps Satellite view

 

Copyright © 2004-2019 Karl L. Swartz. All rights reserved.
The Great Circle Mapper name and logo are trademarks of the Great Circle Mapper.
All other trademarks mentioned herein belong to their respective owners.
Please see credits for attibutions and further copyright information.

  Follow gcmap on Facebook Follow gcmap on Twitter GCmap on LinkedIn

hCard Microformat

Geo Microformat